sat.trackr.live / text

‹ back to catalog

GPS BIIF-1 (PRN 25)

NORAD 36585 · 2010-022A

PAYLOAD ACTIVE UNKNOWN

§ Identity

Operator
Country
US
Launch date
2010-05-28
Launch site
AFETR
Launch vehicle
Mass (kg)
RCS (m²)
5.96

Purposes: nav

External: N2YO · Heavens-Above · Gunter

§ Orbital elements

Epoch: 2026-09-14T22:37:08.040288Z

Period
717.81 min
Inclination
54.2591°
Eccentricity
0.0115632
Mean motion
2.00609970 rev/d
Perigee alt
19,871.0 km
Apogee alt
20,485.2 km
Semi-major
26,556.3 km
B*
0.0000e+0
RAAN
204.9481°
Arg perigee
55.7612°
Mean anomaly
120.2760°
Rev number
11,939

§ Raw data

GPS BIIF-1  (PRN 25)1 36585U 10022A   26257.94245417  .00000017  00000+0  00000+0 0  99962 36585  54.2591 204.9481 0115632  55.7612 120.2760  2.00609970119391

JSON: /api/v1/satellites/36585 · /tle

For live sub-satellite position, see the globe view (requires WebGL).

§ Visibility from observer

Set your observer location to see the next 7 days of passes ≥ 10°. The values pass through the URL so the page stays shareable.

No JS? Fill the form by hand. The geolocation button needs JavaScript.